Location: Godiavel Galaoual
(15.2485°N, 12.6604°W)
Time: 18:39:05
(UTC+00:00)

CZ-2C R/B - Pass Details

Date: 27 February 2020
Orbit: 703 x 909 km, 98.1° (Epoch: 02 April)

Event Time Altitude Azimuth Distance (km) Brightness Sun altitude
Exits shadow 20:59:42 31° 355° (N) 1,524 4.5 -30.1°
Drops below altitude 10° 21:02:34 10° 352° (N) 2,571 5.8 -30.8°
Sets 21:04:58 0° 351° (N) 3,498 6.5 -31.4°
